TimeCDT,TemperatureF,Dew PointF,Humidity,Sea Level PressureIn,VisibilityMPH,Wind Direction,Wind SpeedMPH,Gust SpeedMPH,PrecipitationIn,Events,Conditions,WindDirDegrees,DateUTC
12:53 AM,57.9,52.0,81,30.05,10.0,North,11.5,-,N/A,,Overcast,10,2013-06-06 05:53:00
1:53 AM,57.9,52.0,81,30.04,10.0,NNE,10.4,-,N/A,,Overcast,20,2013-06-06 06:53:00
2:53 AM,57.0,52.0,83,30.03,10.0,North,6.9,-,N/A,,Overcast,10,2013-06-06 07:53:00
3:53 AM,57.0,51.1,81,30.02,10.0,North,8.1,-,N/A,,Overcast,350,2013-06-06 08:53:00
4:07 AM,57.2,51.8,82,30.09,10.0,North,6.9,-,N/A,,Overcast,350,2013-06-06 09:07:00
4:53 AM,57.0,51.1,81,30.01,10.0,North,5.8,-,N/A,,Overcast,10,2013-06-06 09:53:00
5:18 AM,57.2,51.8,82,30.09,10.0,NNE,5.8,-,N/A,,Overcast,20,2013-06-06 10:18:00
5:53 AM,57.0,52.0,83,30.02,10.0,NNE,5.8,-,N/A,,Overcast,30,2013-06-06 10:53:00
6:53 AM,57.0,50.0,77,30.01,10.0,North,5.8,-,N/A,,Overcast,360,2013-06-06 11:53:00
7:34 AM,57.2,51.8,82,30.09,10.0,North,5.8,-,N/A,,Overcast,350,2013-06-06 12:34:00
7:53 AM,57.9,51.1,78,30.03,10.0,NNW,5.8,-,N/A,,Overcast,340,2013-06-06 12:53:00
8:53 AM,60.1,51.1,72,30.04,10.0,NNW,8.1,-,N/A,,Overcast,330,2013-06-06 13:53:00
9:53 AM,63.0,50.0,63,30.04,10.0,North,6.9,-,N/A,,Clear,350,2013-06-06 14:53:00
10:53 AM,64.9,50.0,58,30.04,10.0,Variable,4.6,-,N/A,,Clear,0,2013-06-06 15:53:00
11:53 AM,68.0,51.1,55,30.02,10.0,Variable,6.9,-,N/A,,Clear,0,2013-06-06 16:53:00
12:53 PM,71.1,51.1,49,30.01,10.0,Calm,Calm,-,N/A,,Clear,0,2013-06-06 17:53:00
1:53 PM,71.1,52.0,51,29.98,10.0,Calm,Calm,-,N/A,,Clear,0,2013-06-06 18:53:00
2:53 PM,73.9,52.0,46,29.96,10.0,Calm,Calm,-,N/A,,Clear,0,2013-06-06 19:53:00
3:53 PM,75.9,53.1,45,29.94,10.0,Calm,Calm,-,N/A,,Clear,0,2013-06-06 20:53:00
4:53 PM,75.9,53.1,45,29.91,10.0,Calm,Calm,-,N/A,,Clear,0,2013-06-06 21:53:00
5:53 PM,78.1,52.0,40,29.90,10.0,ENE,6.9,-,N/A,,Clear,70,2013-06-06 22:53:00
6:53 PM,78.1,52.0,40,29.87,10.0,NE,5.8,-,N/A,,Clear,50,2013-06-06 23:53:00
7:53 PM,77.0,52.0,42,29.88,10.0,ENE,11.5,-,N/A,,Clear,70,2013-06-07 00:53:00
8:53 PM,73.0,51.1,46,29.90,10.0,East,9.2,-,N/A,,Clear,80,2013-06-07 01:53:00
9:53 PM,70.0,52.0,53,29.92,10.0,East,6.9,-,N/A,,Clear,100,2013-06-07 02:53:00
10:53 PM,66.9,52.0,59,29.96,10.0,SSE,5.8,-,N/A,,Clear,150,2013-06-07 03:53:00
11:53 PM,64.0,51.1,63,29.96,10.0,SSE,8.1,-,N/A,,Clear,160,2013-06-07 04:53:00